Location: Zagreb
(45.8000°N, 16.0000°E)
Time: 20:23:50
(UTC+01:00)

CUTE-I - Pass Details

Date: 03 November 2020
Orbit: 811 x 824 km, 98.7° (Epoch: 01 December)

Event Time Altitude Azimuth Distance (km) Brightness Sun altitude
Rises 18:32:05 0° 203° (SSW) 3,319 ? -20.0°
Reaches altitude 10° 18:34:58 10° 219° (SW) 2,393 ? -20.5°
Maximum altitude 18:38:56 21° 268° (W) 1,742 ? -21.2°
Drops below altitude 10° 18:42:56 10° 317° (NW) 2,410 ? -21.9°
Sets 18:45:52 0° 333° (NNW) 3,349 ? -22.4°
